Location: Solanas
(39.9333°N, 8.5500°E)
Time: 01:06:06
(UTC+00:00)

Daily predictions for brighter satellites

Satellite Brightness Start Highest point End
(mag) Time Altitude Azimuth Time Altitude Azimuth Time Altitude Azimuth
Cosmos 1464 Rocket 4.3 00:08:47 63° NNW 00:08:47 63° NNW 00:14:03 10° N
Lacrosse 4 Rocket 3.8 00:13:02 21° N 00:13:02 21° N 00:14:49 10° N
Cosmos 2219 Rocket 3.0 00:07:11 10° NNW 00:11:13 48° NNW 00:11:13 48° NNW
SL-16 R/B 3.4 00:28:36 39° E 00:29:49 43° ENE 00:35:40 10° N
COSMOS 2428 3.5 00:25:17 10° NNW 00:29:12 45° NW 00:29:12 45° NW
Cosmos 2034 Rocket 4.2 00:35:41 62° NW 00:35:41 62° NW 00:41:12 10° N
Nadezhda 4 Rocket 4.1 00:29:50 10° N 00:35:18 67° NNW 00:35:18 67° NNW
Cosmos 2360 Rocket 4.4 00:32:16 10° NW 00:33:24 14° WNW 00:33:24 14° WNW
CZ-2D R/B 3.0 00:33:33 10° NNE 00:38:05 43° ENE 00:38:05 43° ENE
GEOS 3 Rocket 4.2 00:38:04 10° NNE 00:42:46 55° NNW 00:42:46 55° NNW
Cosmos 2297 Rocket 2.7 00:45:36 53° ENE 00:45:36 53° ENE 00:50:14 10° NNE
Cosmos 2219 3.6 00:45:50 59° NE 00:45:50 59° NE 00:50:27 10° NNE
ADEOS II 3.9 00:43:16 10° NE 00:47:11 21° E 00:47:27 21° E
Cosmos 1092 Rocket 4.0 00:42:00 10° N 00:48:01 78° NE 00:48:01 78° NE
Cosmos 1980 4.0 00:44:26 10° NNW 00:49:51 62° NE 00:49:51 62° NE
Cosmos 2333 Rocket 3.6 00:45:16 10° NW 00:48:11 28° NW 00:48:11 28° NW
Okean 1 Rocket 4.4 01:01:02 37° NE 01:01:02 37° NE 01:03:51 10° NNE
Cosmos 2237 Rocket 2.3 00:54:29 10° NNW 00:59:51 69° NE 00:59:51 69° NE
CZ-4B R/B 4.5 01:01:02 10° NNE 01:04:55 37° E 01:04:55 37° E
ATLAS 3B CENTAUR R/B 4.1 01:13:44 42° S 01:13:44 42° S 01:20:22 10° ESE
Timation 2 Rocket 4.4 01:14:34 46° WNW 01:14:49 46° WNW 01:20:39 10° NNE
Meteor 1-15 Rocket 4.2 01:22:53 73° WNW 01:22:53 73° WNW 01:28:19 10° N
SJ 16-02 2.2 01:25:10 46° ENE 01:25:10 46° ENE 01:28:43 10° NNE
Cosmos 2227 Rocket 2.3 01:33:34 62° WNW 01:33:42 62° WNW 01:39:20 10° NNE
Cosmos 1455 Rocket 4.2 01:34:24 37° E 01:34:38 37° E 01:38:43 10° NNE
Cosmos 2180 Rocket 4.4 01:36:43 61° SSE 01:37:52 80° E 01:44:02 10° N
Resurs 1-4 Rocket 2.5 01:34:28 10° N 01:39:24 49° WNW 01:39:24 49° WNW
Cosmos 1733 4.4 01:42:54 39° N 01:42:54 39° N 01:45:26 10° N
Cosmos 2279 Rocket 3.9 01:44:46 62° SW 01:45:35 69° W 01:51:47 10° N
Cosmos 1892 Rocket 4.1 01:41:14 10° N 01:45:37 54° E 01:46:08 51° ESE
Cosmos 1461 3.4 01:47:03 57° E 01:47:03 57° E 01:51:05 10° NE
COBE Rocket 3.7 01:47:34 87° E 01:47:35 87° ENE 01:52:15 10° N
USA 215 3.3 01:42:55 10° NE 01:49:26 74° NW 01:51:29 47° WSW
Cosmos 2026 Rocket 4.4 01:45:30 10° NNW 01:51:08 43° W 01:51:08 43° W
SL-24 R/B 4.2 01:53:41 78° WSW 01:53:47 79° W 01:58:43 10° N
Cosmos 2082 3.6 01:53:29 65° WSW 01:54:14 75° WNW 01:59:52 10° NNE
Cosmos 1340 Rocket 3.7 01:54:19 40° ESE 01:54:38 40° E 01:58:22 10° NNE
Cosmos 2344 4.5 01:48:11 10° NW 01:58:20 71° WSW 02:12:30 10° SSE
Cosmos 1953 4.4 01:59:20 17° SE 02:01:08 23° E 02:04:19 10° NE
SL-4 R/B 3.6 01:58:18 10° NW 02:01:19 27° NNE 02:04:17 10° E
Cosmos 2112 Rocket 4.3 01:57:26 10° NNW 02:02:38 63° ENE 02:06:35 17° SSE
Cosmos 1726 3.9 02:04:07 22° ESE 02:05:12 26° E 02:08:19 10° NNE
Meteor 1-24 Rocket 3.5 02:02:12 10° NNW 02:07:40 75° W 02:08:55 52° SSW
CBERS-1 4.1 02:03:24 10° N 02:08:25 60° WNW 02:09:09 54° WSW
Cosmos 1937 Rocket 3.8 02:06:56 42° SSE 02:08:34 64° ESE 02:13:50 10° NNE
SL-16 R/B 2.1 02:03:04 10° NNW 02:08:48 88° WSW 02:12:33 22° SSE
NOSS 2-3 (E) 4.4 02:10:33 35° SE 02:11:19 38° ESE 02:15:37 10° NE
Meteor 2-5 Rocket 3.8 02:05:55 10° NNW 02:11:20 51° W 02:11:59 49° WSW
H-2A R/B 4.4 02:09:18 10° ESE 02:12:28 22° ENE 02:15:37 10° NNE
Cosmos 1898 Rocket 3.4 02:11:42 55° SSW 02:12:54 85° WNW 02:18:09 10° NNE
SL-16 R/B 3.4 02:13:42 30° W 02:13:42 30° W 02:18:55 10° NW
ARIANE 5 R/B 2.6 02:10:45 10° NNE 02:15:59 74° ESE 02:18:02 38° S
CZ-2D R/B 3.5 02:14:14 10° NNW 02:18:33 24° WNW 02:19:24 23° WNW
IDEFIX/ARIANE 42P 3.2 02:13:49 10° NNE 02:18:52 50° E 02:21:55 23° SSE
NOSS 3-1 (C) 3.1 02:17:24 47° SW 02:19:04 89° NW 02:25:13 10° NE
USA 267 4.0 02:13:25 10° ESE 02:19:42 53° NE 02:26:01 10° NW
Cosmos 1680 Rocket 3.3 02:15:11 10° NNW 02:20:25 76° WSW 02:22:58 31° S
Cosmos 1544 Rocket 3.5 02:20:00 53° S 02:21:03 88° E 02:25:32 10° N
Cosmos 990 Rocket 4.1 02:23:20 46° WSW 02:24:37 61° WNW 02:29:46 10° NNE
Timation 1 Rocket 4.3 02:22:56 36° SSW 02:25:32 79° ESE 02:31:30 10° NNE
Cosmos 2263 Rocket 2.8 02:23:54 24° S 02:27:00 49° ESE 02:32:21 10° NE
ADEOS II 2.5 02:22:03 10° N 02:27:04 46° WNW 02:28:23 38° WSW
Cosmos 1607 3.9 02:21:07 10° NW 02:27:34 75° WSW 02:33:59 10° SSE
Cosmos 2297 Rocket 3.8 02:27:24 18° WNW 02:29:08 20° NW 02:33:18 10° N
IRS-1D 4.3 02:26:16 10° N 02:30:50 35° WNW 02:31:55 32° W
Meteor 2-10 4.3 02:29:21 24° S 02:32:39 70° E 02:38:13 10° NNE
Okean 1-7 Rocket 3.6 02:29:50 10° NNW 02:34:09 56° W 02:35:05 46° SW
NOSS 2-3 (D) 3.8 02:33:37 39° S 02:35:00 62° ESE 02:39:37 10° NE
ERS-1 4.4 02:30:05 10° N 02:35:02 71° WNW 02:36:59 37° SSW
IRS-1C 4.3 02:31:30 10° N 02:36:43 54° WNW 02:38:43 35° SW
Meteor 1-28 Rocket 3.1 02:36:22 54° SSW 02:37:00 65° W 02:40:47 10° NNW
OAO 3 Rocket 4.3 02:37:49 27° S 02:38:43 29° SSE 02:42:57 10° ESE
Cosmos 1626 3.8 02:37:02 10° NW 02:38:56 21° WNW 02:38:56 21° WNW
Cosmos 2266 Rocket 4.1 02:35:02 10° NNW 02:41:14 57° W 02:45:02 24° SSW
Cosmos 1655 Rocket 4.4 02:36:12 10° NNW 02:42:00 41° W 02:44:28 29° SW
Cosmos 1470 3.3 02:41:43 39° W 02:42:03 40° WNW 02:45:49 10° N
Cosmos 2237 Rocket 4.1 02:40:30 10° WNW 02:41:37 13° WNW 02:41:37 13° WNW
Cosmos 1602 Rocket 4.1 02:39:16 10° N 02:43:35 58° E 02:47:50 10° SSE
SL-08 R/B 3.5 02:43:56 29° SSW 02:46:14 53° W 02:51:06 10° NNW
CZ-2C R/B 4.2 02:43:07 10° NE 02:46:58 26° E 02:50:50 10° SSE
USA 229 DEB 3.7 02:48:34 27° SW 02:52:14 65° NW 02:59:02 10° NNE
USA 229 3.7 02:48:39 27° SW 02:52:19 66° NW 02:59:06 10° NNE
Cosmos 2098 Rocket 4.2 02:51:31 10° NNW 02:56:12 40° W 02:59:34 22° SSW
H-2A R/B (2) 3.2 02:59:47 13° SSE 02:59:47 13° SSE 03:00:39 10° SSE
Nadezhda 2 Rocket 4.5 02:53:03 10° N 02:59:19 87° E 03:05:26 10° S
Cosmos 2298 Rocket 4.4 02:57:03 14° S 03:01:38 64° ESE 03:06:53 10° NNE
NOSS 2-3 (C) 3.6 03:01:07 28° SW 03:03:15 66° NW 03:08:03 10° NNE
SJ 16-02 3.3 03:02:10 13° WNW 03:03:20 15° WNW 03:05:50 10° NNW
NOSS 3-1 (A) 3.3 03:00:07 25° SW 03:03:24 71° NW 03:09:35 10° NNE
ERBS 2.7 03:02:09 10° WNW 03:05:12 36° SW 03:08:14 10° SSE
Meteor 2-14 Rocket 4.4 03:00:04 10° NNW 03:06:07 72° W 03:12:07 10° S
CSL-04 DEB 4.2 03:03:55 10° S 03:07:49 69° WSW 03:11:44 10° NNW
SL-23 DEB 4.4 03:05:52 10° WNW 03:11:06 42° SW 03:14:30 10° SSE
MSX 3.8 03:09:10 10° N 03:14:55 75° WNW 03:20:29 11° SSW
Cosmos 1943 3.4 03:09:57 10° NNW 03:15:35 74° ENE 03:21:11 10° SSE
PSLV R/B 4.0 03:11:30 10° NNE 03:15:52 64° E 03:20:10 10° S
Cosmos 1626 Rocket 3.9 03:12:22 10° NNW 03:16:26 41° W 03:19:53 14° SSW
Cosmos 2227 Rocket 4.4 03:18:04 10° NW 03:18:56 10° NW 03:19:49 10° NW
Meteor 1-21 Rocket 4.2 03:14:55 10° NNW 03:20:22 59° W 03:25:47 10° S
PAYLOAD A 4.3 03:16:55 10° NNE 03:22:18 76° ESE 03:27:29 10° S
Landsat 5 3.3 03:18:45 10° S 03:22:34 63° WSW 03:26:31 10° NNW
SeaSat 1 2.5 03:18:28 10° NNE 03:23:23 71° WNW 03:27:43 13° SW
CZ-2C R/B 3.4 03:23:54 10° N 03:27:30 37° WNW 03:30:09 16° SW
ATLAS CENTAUR R/B 2.4 03:26:59 10° S 03:31:03 43° ESE 03:34:53 10° NE
Cosmos 1356 Rocket 4.3 03:27:05 10° S 03:31:11 51° E 03:35:14 10° NNE
FALCON 9 DEB 3.3 03:28:44 10° NW 03:32:12 75° NE 03:35:39 10° SE
ERS-2 2.3 03:30:20 10° S 03:33:51 49° WSW 03:37:24 10° NNW
Cosmos 1758 Rocket 3.4 03:30:10 10° N 03:34:29 77° W 03:38:47 10° S
ATLAS 3B CENTAUR R/B 3.6 03:27:04 12° WSW 03:34:30 27° SSW 03:38:55 10° SSE
Cosmos 2228 3.0 03:30:51 10° S 03:35:12 89° W 03:39:37 10° N
Cosmos 1953 3.6 03:35:03 14° WSW 03:37:24 23° WNW 03:40:40 10° NNW
Cosmos 724 4.4 03:32:30 10° NW 03:38:27 61° WSW 03:44:27 10° SSE
Cosmos 1726 3.9 03:38:38 13° WSW 03:40:24 17° WNW 03:42:52 10° NNW
SL-4 R/B 2.0 03:37:43 10° WNW 03:40:55 39° SW 03:44:08 10° SSE
Cosmos 1908 3.7 03:38:43 10° SSW 03:42:27 42° WNW 03:46:11 10° N
Cosmos 2285 Rocket 4.1 03:39:13 10° SSW 03:45:27 63° WNW 03:51:43 10° NNE
CBERS 1 LM4 rocket 4.5 03:41:18 10° N 03:46:15 75° WNW 03:51:22 10° SSW
H-2A R/B 2.8 03:44:42 10° SSW 03:48:17 28° W 03:51:52 10° NW
Cosmos 2150 Rocket 4.3 03:45:22 10° SW 03:50:21 50° WNW 03:55:26 10° N
SL-16 R/B 4.0 03:50:53 10° W 03:51:59 11° W 03:53:03 10° WSW
Cosmos 468 4.5 03:47:32 10° NNW 03:52:48 80° WSW 03:58:04 10° SSE
Meteor 2-15 4.5 03:47:32 10° S 03:53:35 89° WNW 03:59:40 10° N
ARIANE 5 R/B 4.4 03:51:42 10° NNW 03:54:26 14° WNW 03:57:11 10° W
Cosmos 1825 Rocket 3.7 03:52:48 10° NNW 03:57:02 53° W 04:01:13 10° S
Atlas Centaur 2 4.2 03:50:54 10° SW 03:57:24 29° SSE 04:04:23 10° ESE
CZ-4C R/B 4.5 03:55:45 10° SW 03:57:49 16° W 03:59:53 10° NW
IDEFIX/ARIANE 42P 4.0 03:54:22 10° NNW 03:58:04 20° WNW 04:01:47 10° WSW
CZ-4B R/B 1.3 03:57:25 10° S 04:00:43 68° WSW 04:03:57 10° NNW
Cosmos 1328 4.4 03:57:40 10° NNW 04:01:23 38° W 04:05:04 10° SSW
ADEOS 3.6 03:56:16 10° NNE 04:01:31 83° WNW 04:06:43 10° SSW
USA 267 3.5 03:56:31 10° SSE 04:02:44 46° SW 04:08:58 10° WNW
Cosmos 1953 Rocket 3.6 03:58:39 10° NNW 04:03:08 72° W 04:07:34 10° S
